Location: Unspecified
(0.0000°N, 0.0000°E)
Time: 06:56:31
(UTC+00:00)

UNAMSat - Pass Details

Date: 18 May 2026
Orbit: 964 x 1006 km, 82.9° (Epoch: 10 June)

Event Time Altitude Azimuth Distance (km) Brightness Sun altitude
Rises 02:44:49 0° 2° (N) 3,717 11.4 -44.4°
Reaches altitude 10° 02:47:22 10° 5° (N) 2,770 10.7 -43.8°
Enters shadow 02:47:31 11° 5° (N) 2,713 10.7 -43.8°
